This is the latest recevied weather packets stored in our database for station/object KG4LKY-5. If no packets are shown the sender has not sent any weather packets the latest 1 day(s).
| Time | Temp. | Humidity | Pressure | Rain* | Wind** | Luminosity | Snow |
|---|---|---|---|---|---|---|---|
| 1778074452 | 16.11° C | 100% | 1010.6 hPa | 29.97 mm | - | - | - |
| 1778074152 | 16.11° C | 100% | 1010.6 hPa | 28.96 mm | - | - | - |
| 1778073551 | 15.56° C | 100% | 1011.1 hPa | 25.91 mm | - | - | - |
| 1778073251 | 15.56° C | 100% | 1010.8 hPa | 24.38 mm | - | - | - |
| 1778072350 | 15.56° C | 100% | 1010.4 hPa | 19.05 mm | - | - | - |
| 1778071449 | 16.11° C | 100% | 1010.6 hPa | 17.02 mm | - | - | - |
| 1778069048 | 15° C | 100% | 1010.1 hPa | 14.73 mm | - | - | - |
| 1778068146 | 15° C | 100% | 1010.3 hPa | 13.97 mm | - | - | - |
| 1778067846 | 16.11° C | 100% | 1010.3 hPa | 13.72 mm | - | - | - |
| 1778067546 | 16.67° C | 100% | 1010.3 hPa | 13.72 mm | - | - | - |
| 1778067245 | 16.11° C | 100% | 1010.3 hPa | 13.46 mm | - | - | - |
| 1778066044 | 15° C | 100% | 1010 hPa | 12.95 mm | - | - | - |
| 1778064243 | 15.56° C | 100% | 1009.4 hPa | 7.11 mm | - | - | - |
| 1778063642 | 15.56° C | 100% | 1009.4 hPa | 5.84 mm | - | - | - |
| 1778063041 | 16.11° C | 100% | 1008.9 hPa | 5.33 mm | - | - | - |
| 1778062741 | 15.56° C | 100% | 1008.9 hPa | 5.08 mm | - | - | - |
| 1778061840 | 15.56° C | 100% | 1008.5 hPa | 4.57 mm | - | - | - |
| 1778061540 | 15.56° C | 100% | 1008.7 hPa | 4.06 mm | - | - | - |
| 1778060939 | 15.56° C | 100% | 1008.3 hPa | 2.54 mm | - | - | - |
| 1778060639 | 16.11° C | 100% | 1008.3 hPa | 2.54 mm | - | - | - |
| 1778059738 | 15.56° C | 100% | 1008 hPa | 2.29 mm | - | - | - |
| 1778059438 | 15.56° C | 100% | 1008.1 hPa | 2.29 mm | - | - | - |
| 1778058837 | 16.11° C | 100% | 1008.1 hPa | 1.52 mm | - | - | - |
| 1778058537 | 16.11° C | 100% | 1008 hPa | 1.02 mm | - | - | - |
| 1778057637 | 16.11° C | 100% | 1007.7 hPa | 0.76 mm | - | - | - |
* Rain since midnight (hover to see other rain measurements)
** Current wind speed in m/s (hover to see current wind gust speed)